Back to Top

Language: 

My Weather Underground Personal Weather Station Historical Data with Graphs...

Delerius Weather Station Historical Data
Daily Summary for October 12, 2017 Units:  English    Metric   Both
« Previous Day
Next Day »
Daily Weekly Monthly Yearly Custom
  High: Low: Average:
Temperature: 60.4 °F 49.5 °F 54.3 °F
Dew Point: 51.9 °F 44.2 °F 46.9 °F
Humidity: 85 % 63 % 77 %
Wind Speed: 15.0 mph 1.0 mph 7.8 mph
Wind Gust: 27.0 mph - -
Wind:- - WSW
Pressure: 30.06 in 29.79 in -
Precipitation: 0.00 in    
Historical Graphs
 
 
Tabular Data for October 12, 2017
Time Temperature Dew Point Pressure Wind Wind Speed Wind Gust Humidity Rainfall Rate (Hourly) solar Conditions
00:00 51.4 °F 44.8 °F 29.79 in West 11.0 mph 27.0 mph 78 % 0.00 in 0 W/m2
00:05 51.4 °F 44.5 °F 29.80 in West 12.0 mph 22.0 mph 77 % 0.00 in 0 W/m2
00:10 51.4 °F 44.8 °F 29.80 in West 11.0 mph 21.0 mph 78 % 0.00 in 0 W/m2
00:15 51.3 °F 45.0 °F 29.81 in West 9.0 mph 19.0 mph 79 % 0.00 in 0 W/m2
00:20 51.3 °F 45.0 °F 29.81 in West 9.0 mph 20.0 mph 79 % 0.00 in 0 W/m2
00:25 51.1 °F 44.8 °F 29.81 in West 9.0 mph 20.0 mph 79 % 0.00 in 0 W/m2
00:30 50.9 °F 44.9 °F 29.81 in West 8.0 mph 16.0 mph 80 % 0.00 in 0 W/m2
00:35 50.7 °F 44.8 °F 29.81 in West 7.0 mph 15.0 mph 80 % 0.00 in 0 W/m2
00:40 50.5 °F 44.6 °F 29.81 in West 6.0 mph 10.0 mph 80 % 0.00 in 0 W/m2
00:45 50.5 °F 44.9 °F 29.82 in West 5.0 mph 10.0 mph 81 % 0.00 in 0 W/m2
00:50 50.4 °F 44.7 °F 29.82 in West 3.0 mph 10.0 mph 81 % 0.00 in 0 W/m2
00:55 50.4 °F 45.1 °F 29.82 in West 4.0 mph 10.0 mph 82 % 0.00 in 0 W/m2
01:00 50.2 °F 44.9 °F 29.82 in West 4.0 mph 8.0 mph 82 % 0.00 in 0 W/m2
01:05 50.2 °F 45.2 °F 29.82 in West 4.0 mph 8.0 mph 83 % 0.00 in 0 W/m2
01:10 50.0 °F 45.0 °F 29.82 in WNW 3.0 mph 8.0 mph 83 % 0.00 in 0 W/m2
01:15 49.8 °F 44.9 °F 29.83 in West 3.0 mph 9.0 mph 83 % 0.00 in 0 W/m2
01:20 50.0 °F 45.4 °F 29.83 in West 5.0 mph 10.0 mph 84 % 0.00 in 0 W/m2
01:25 50.0 °F 45.0 °F 29.83 in WSW 6.0 mph 10.0 mph 83 % 0.00 in 0 W/m2
01:31 50.2 °F 45.2 °F 29.84 in West 6.0 mph 10.0 mph 83 % 0.00 in 0 W/m2
01:36 50.2 °F 45.2 °F 29.84 in West 6.0 mph 10.0 mph 83 % 0.00 in 0 W/m2
01:41 50.0 °F 45.0 °F 29.84 in West 6.0 mph 15.0 mph 83 % 0.00 in 0 W/m2
01:46 50.0 °F 44.7 °F 29.84 in West 7.0 mph 15.0 mph 82 % 0.00 in 0 W/m2
01:56 50.0 °F 44.4 °F 29.85 in West 7.0 mph 18.0 mph 81 % 0.00 in 0 W/m2
02:01 49.8 °F 44.5 °F 29.85 in West 7.0 mph 13.0 mph 82 % 0.00 in 0 W/m2
02:06 49.8 °F 44.5 °F 29.85 in West 8.0 mph 13.0 mph 82 % 0.00 in 0 W/m2
02:11 49.8 °F 44.5 °F 29.86 in West 8.0 mph 12.0 mph 82 % 0.00 in 0 W/m2
02:16 49.8 °F 44.5 °F 29.86 in West 7.0 mph 12.0 mph 82 % 0.00 in 0 W/m2
02:21 49.8 °F 44.5 °F 29.86 in West 7.0 mph 12.0 mph 82 % 0.00 in 0 W/m2
02:26 49.6 °F 44.4 °F 29.86 in West 6.0 mph 9.0 mph 82 % 0.00 in 0 W/m2
02:31 49.5 °F 44.5 °F 29.86 in WSW 7.0 mph 11.0 mph 83 % 0.00 in 0 W/m2
02:36 49.5 °F 44.2 °F 29.86 in WSW 7.0 mph 13.0 mph 82 % 0.00 in 0 W/m2
02:41 49.5 °F 44.5 °F 29.87 in West 7.0 mph 13.0 mph 83 % 0.00 in 0 W/m2
02:46 49.5 °F 44.5 °F 29.87 in West 7.0 mph 11.0 mph 83 % 0.00 in 0 W/m2
02:51 49.5 °F 44.2 °F 29.87 in West 8.0 mph 13.0 mph 82 % 0.00 in 0 W/m2
02:56 49.6 °F 44.4 °F 29.87 in West 9.0 mph 15.0 mph 82 % 0.00 in 0 W/m2
03:01 49.6 °F 44.4 °F 29.87 in West 9.0 mph 15.0 mph 82 % 0.00 in 0 W/m2
03:06 49.6 °F 44.4 °F 29.87 in West 9.0 mph 14.0 mph 82 % 0.00 in 0 W/m2
03:11 49.6 °F 44.4 °F 29.87 in WSW 9.0 mph 14.0 mph 82 % 0.00 in 0 W/m2
03:16 49.6 °F 44.4 °F 29.87 in WSW 9.0 mph 14.0 mph 82 % 0.00 in 0 W/m2
03:21 49.6 °F 44.4 °F 29.87 in WSW 9.0 mph 14.0 mph 82 % 0.00 in 0 W/m2
03:26 49.6 °F 44.4 °F 29.87 in WSW 8.0 mph 14.0 mph 82 % 0.00 in 0 W/m2
03:31 49.5 °F 44.2 °F 29.88 in West 8.0 mph 14.0 mph 82 % 0.00 in 0 W/m2
03:36 49.5 °F 44.5 °F 29.88 in WSW 7.0 mph 12.0 mph 83 % 0.00 in 0 W/m2
03:41 49.5 °F 44.5 °F 29.88 in WSW 8.0 mph 15.0 mph 83 % 0.00 in 0 W/m2
03:46 49.5 °F 44.8 °F 29.88 in WSW 9.0 mph 15.0 mph 84 % 0.00 in 0 W/m2
03:51 49.6 °F 45.0 °F 29.88 in West 9.0 mph 15.0 mph 84 % 0.00 in 0 W/m2
03:56 49.6 °F 45.0 °F 29.89 in West 9.0 mph 16.0 mph 84 % 0.00 in 0 W/m2
03:57 49.6 °F 45.0 °F 29.89 in WSW 10.0 mph 16.0 mph 84 % 0.00 in 0 W/m2
04:02 49.6 °F 45.0 °F 29.89 in WSW 10.0 mph 16.0 mph 84 % 0.00 in 0 W/m2
04:07 49.8 °F 45.5 °F 29.89 in West 11.0 mph 16.0 mph 85 % 0.00 in 0 W/m2
04:12 50.0 °F 45.4 °F 29.89 in West 10.0 mph 18.0 mph 84 % 0.00 in 0 W/m2
04:17 50.0 °F 45.4 °F 29.89 in West 9.0 mph 18.0 mph 84 % 0.00 in 0 W/m2
04:22 49.8 °F 45.2 °F 29.89 in West 8.0 mph 16.0 mph 84 % 0.00 in 0 W/m2
04:23 49.8 °F 45.2 °F 29.89 in West 9.0 mph 16.0 mph 84 % 0.00 in 0 W/m2
04:26 49.8 °F 45.5 °F 29.89 in West 8.0 mph 14.0 mph 85 % 0.00 in 0 W/m2
04:31 49.8 °F 45.5 °F 29.89 in West 9.0 mph 14.0 mph 85 % 0.00 in 0 W/m2
04:36 49.8 °F 45.5 °F 29.89 in West 8.0 mph 14.0 mph 85 % 0.00 in 0 W/m2
04:41 49.8 °F 45.5 °F 29.90 in WSW 7.0 mph 12.0 mph 85 % 0.00 in 0 W/m2
04:46 49.8 °F 45.5 °F 29.90 in WSW 7.0 mph 14.0 mph 85 % 0.00 in 0 W/m2
04:51 49.8 °F 45.5 °F 29.90 in WSW 7.0 mph 14.0 mph 85 % 0.00 in 0 W/m2
04:56 49.8 °F 45.5 °F 29.90 in WSW 7.0 mph 12.0 mph 85 % 0.00 in 0 W/m2
05:01 49.8 °F 45.5 °F 29.90 in WSW 7.0 mph 12.0 mph 85 % 0.00 in 0 W/m2
05:06 49.8 °F 45.2 °F 29.91 in WSW 8.0 mph 14.0 mph 84 % 0.00 in 0 W/m2
05:11 49.8 °F 45.2 °F 29.91 in WSW 9.0 mph 14.0 mph 84 % 0.00 in 0 W/m2
05:16 49.8 °F 45.2 °F 29.91 in WSW 8.0 mph 15.0 mph 84 % 0.00 in 0 W/m2
05:21 49.8 °F 45.2 °F 29.92 in WSW 8.0 mph 16.0 mph 84 % 0.00 in 0 W/m2
05:26 49.8 °F 44.9 °F 29.92 in WSW 9.0 mph 16.0 mph 83 % 0.00 in 0 W/m2
05:31 50.0 °F 45.0 °F 29.92 in WSW 9.0 mph 15.0 mph 83 % 0.00 in 0 W/m2
05:36 50.2 °F 45.2 °F 29.92 in WSW 9.0 mph 16.0 mph 83 % 0.00 in 0 W/m2
05:41 50.2 °F 45.2 °F 29.92 in WSW 10.0 mph 19.0 mph 83 % 0.00 in 0 W/m2
05:46 50.2 °F 45.2 °F 29.93 in WSW 9.0 mph 19.0 mph 83 % 0.00 in 0 W/m2
05:51 50.4 °F 45.4 °F 29.93 in WSW 9.0 mph 19.0 mph 83 % 0.00 in 0 W/m2
05:56 50.4 °F 45.4 °F 29.93 in WSW 10.0 mph 19.0 mph 83 % 0.00 in 0 W/m2
06:01 50.4 °F 45.4 °F 29.93 in West 9.0 mph 15.0 mph 83 % 0.00 in 0 W/m2
06:06 50.5 °F 45.6 °F 29.93 in West 9.0 mph 16.0 mph 83 % 0.00 in 0 W/m2
06:11 50.5 °F 45.6 °F 29.94 in WSW 8.0 mph 16.0 mph 83 % 0.00 in 0 W/m2
06:16 50.7 °F 45.7 °F 29.94 in WSW 8.0 mph 16.0 mph 83 % 0.00 in 0 W/m2
06:21 50.9 °F 46.2 °F 29.94 in West 9.0 mph 16.0 mph 84 % 0.00 in 0 W/m2
06:26 51.1 °F 46.1 °F 29.94 in West 10.0 mph 15.0 mph 83 % 0.00 in 0 W/m2
06:31 51.1 °F 46.1 °F 29.94 in West 9.0 mph 15.0 mph 83 % 0.00 in 0 W/m2
06:36 51.3 °F 46.3 °F 29.94 in WSW 8.0 mph 14.0 mph 83 % 0.00 in 0 W/m2
06:41 51.3 °F 46.3 °F 29.94 in WSW 8.0 mph 15.0 mph 83 % 0.00 in 0 W/m2
06:46 51.3 °F 46.3 °F 29.95 in WSW 9.0 mph 15.0 mph 83 % 0.00 in 0 W/m2
06:51 51.3 °F 46.3 °F 29.95 in West 10.0 mph 16.0 mph 83 % 0.00 in 0 W/m2
06:56 51.1 °F 46.1 °F 29.95 in West 9.0 mph 16.0 mph 83 % 0.00 in 0 W/m2
07:01 51.1 °F 46.1 °F 29.95 in West 8.0 mph 19.0 mph 83 % 0.00 in 0 W/m2
07:06 50.9 °F 45.9 °F 29.95 in West 9.0 mph 19.0 mph 83 % 0.00 in 0 W/m2
07:11 50.7 °F 45.7 °F 29.95 in West 8.0 mph 16.0 mph 83 % 0.00 in 0 W/m2
07:16 50.9 °F 46.2 °F 29.96 in WSW 8.0 mph 14.0 mph 84 % 0.00 in 0 W/m2
07:21 50.9 °F 46.2 °F 29.96 in WSW 9.0 mph 14.0 mph 84 % 0.00 in 0 W/m2
07:26 51.1 °F 46.1 °F 29.97 in WSW 9.0 mph 15.0 mph 83 % 0.00 in 0 W/m2
07:31 51.1 °F 46.1 °F 29.97 in WSW 9.0 mph 16.0 mph 83 % 0.00 in 0 W/m2
07:36 51.1 °F 46.1 °F 29.97 in WSW 10.0 mph 18.0 mph 83 % 0.00 in 7 W/m2
07:41 50.9 °F 45.9 °F 29.97 in WSW 10.0 mph 18.0 mph 83 % 0.00 in 9 W/m2
07:46 50.9 °F 45.9 °F 29.97 in WSW 9.0 mph 16.0 mph 83 % 0.00 in 12 W/m2
07:51 50.7 °F 45.7 °F 29.98 in WSW 9.0 mph 16.0 mph 83 % 0.00 in 18 W/m2
07:56 50.7 °F 45.7 °F 29.98 in WSW 9.0 mph 14.0 mph 83 % 0.00 in 21 W/m2
08:02 50.7 °F 45.7 °F 29.98 in WSW 8.0 mph 13.0 mph 83 % 0.00 in 25 W/m2
08:07 50.7 °F 45.7 °F 29.99 in WSW 8.0 mph 12.0 mph 83 % 0.00 in 26 W/m2
08:12 50.7 °F 45.7 °F 29.99 in WSW 8.0 mph 11.0 mph 83 % 0.00 in 30 W/m2
08:17 50.7 °F 45.7 °F 29.99 in WSW 8.0 mph 15.0 mph 83 % 0.00 in 33 W/m2
08:22 50.7 °F 45.7 °F 30.00 in WSW 8.0 mph 19.0 mph 83 % 0.00 in 37 W/m2
08:27 50.9 °F 45.9 °F 29.99 in WSW 9.0 mph 19.0 mph 83 % 0.00 in 32 W/m2
08:32 50.9 °F 45.9 °F 29.99 in WSW 9.0 mph 15.0 mph 83 % 0.00 in 32 W/m2
08:37 50.9 °F 45.9 °F 30.00 in WSW 10.0 mph 16.0 mph 83 % 0.00 in 40 W/m2
08:38 50.9 °F 45.9 °F 30.00 in WSW 10.0 mph 16.0 mph 83 % 0.00 in 47 W/m2
08:43 51.1 °F 46.1 °F 30.00 in WSW 9.0 mph 16.0 mph 83 % 0.00 in 63 W/m2
08:48 51.1 °F 46.1 °F 30.01 in WSW 8.0 mph 16.0 mph 83 % 0.00 in 70 W/m2
08:53 51.1 °F 46.1 °F 30.01 in WSW 8.0 mph 14.0 mph 83 % 0.00 in 63 W/m2
08:58 51.1 °F 46.1 °F 30.01 in WSW 8.0 mph 15.0 mph 83 % 0.00 in 118 W/m2
09:03 51.3 °F 46.3 °F 30.01 in WSW 7.0 mph 15.0 mph 83 % 0.00 in 123 W/m2
09:08 51.4 °F 46.4 °F 30.01 in WSW 7.0 mph 13.0 mph 83 % 0.00 in 230 W/m2
09:13 51.6 °F 46.3 °F 30.01 in WSW 8.0 mph 16.0 mph 82 % 0.00 in 113 W/m2
09:18 51.8 °F 46.5 °F 30.01 in WSW 9.0 mph 16.0 mph 82 % 0.00 in 102 W/m2
09:23 52.0 °F 46.3 °F 30.01 in WSW 9.0 mph 16.0 mph 81 % 0.00 in 144 W/m2
09:33 52.3 °F 46.4 °F 30.01 in WSW 10.0 mph 16.0 mph 80 % 0.00 in 123 W/m2
09:38 52.3 °F 46.4 °F 30.01 in WSW 11.0 mph 25.0 mph 80 % 0.00 in 120 W/m2
09:43 52.5 °F 46.5 °F 30.01 in WSW 11.0 mph 25.0 mph 80 % 0.00 in 139 W/m2
09:53 52.7 °F 46.7 °F 30.01 in West 10.0 mph 19.0 mph 80 % 0.00 in 163 W/m2
09:58 52.9 °F 46.5 °F 30.01 in West 11.0 mph 20.0 mph 79 % 0.00 in 171 W/m2
10:03 52.9 °F 46.5 °F 30.01 in West 12.0 mph 21.0 mph 79 % 0.00 in 190 W/m2
10:08 53.1 °F 46.4 °F 30.01 in West 13.0 mph 21.0 mph 78 % 0.00 in 257 W/m2
10:13 53.4 °F 46.7 °F 30.02 in West 13.0 mph 22.0 mph 78 % 0.00 in 230 W/m2
10:18 53.4 °F 46.4 °F 30.02 in West 13.0 mph 23.0 mph 77 % 0.00 in 214 W/m2
10:23 53.8 °F 46.7 °F 30.02 in West 12.0 mph 23.0 mph 77 % 0.00 in 327 W/m2
10:28 53.8 °F 46.4 °F 30.03 in West 13.0 mph 21.0 mph 76 % 0.00 in 248 W/m2
10:33 53.8 °F 46.7 °F 30.03 in WSW 13.0 mph 22.0 mph 77 % 0.00 in 237 W/m2
10:38 54.0 °F 46.6 °F 30.03 in West 12.0 mph 22.0 mph 76 % 0.00 in 179 W/m2
10:43 54.1 °F 47.1 °F 30.03 in WSW 10.0 mph 19.0 mph 77 % 0.00 in 272 W/m2
10:48 54.1 °F 47.1 °F 30.03 in WSW 10.0 mph 21.0 mph 77 % 0.00 in 330 W/m2
10:53 54.3 °F 47.3 °F 30.03 in WSW 11.0 mph 21.0 mph 77 % 0.00 in 366 W/m2
10:58 54.9 °F 47.8 °F 30.03 in WSW 9.0 mph 18.0 mph 77 % 0.00 in 394 W/m2
11:03 55.0 °F 47.3 °F 30.04 in WSW 9.0 mph 20.0 mph 75 % 0.00 in 345 W/m2
11:08 55.2 °F 47.1 °F 30.04 in WSW 11.0 mph 22.0 mph 74 % 0.00 in 313 W/m2
11:13 55.2 °F 47.1 °F 30.04 in WSW 12.0 mph 22.0 mph 74 % 0.00 in 364 W/m2
11:18 55.6 °F 47.4 °F 30.04 in WSW 12.0 mph 22.0 mph 74 % 0.00 in 429 W/m2
11:23 55.9 °F 47.8 °F 30.04 in WSW 12.0 mph 22.0 mph 74 % 0.00 in 418 W/m2
11:28 56.1 °F 47.6 °F 30.05 in WSW 11.0 mph 20.0 mph 73 % 0.00 in 352 W/m2
11:33 56.1 °F 47.2 °F 30.05 in WSW 12.0 mph 22.0 mph 72 % 0.00 in 334 W/m2
11:38 56.1 °F 47.6 °F 30.05 in West 12.0 mph 22.0 mph 73 % 0.00 in 466 W/m2
11:43 56.3 °F 47.4 °F 30.05 in WSW 12.0 mph 21.0 mph 72 % 0.00 in 385 W/m2
11:48 56.5 °F 47.2 °F 30.05 in WSW 12.0 mph 21.0 mph 71 % 0.00 in 211 W/m2
11:53 56.5 °F 47.6 °F 30.05 in West 10.0 mph 21.0 mph 72 % 0.00 in 213 W/m2
11:56 56.5 °F 47.2 °F 30.05 in WSW 9.0 mph 19.0 mph 71 % 0.00 in 216 W/m2
12:02 56.3 °F 46.6 °F 30.05 in WSW 10.0 mph 19.0 mph 70 % 0.00 in 211 W/m2
12:07 56.1 °F 46.5 °F 30.06 in West 11.0 mph 18.0 mph 70 % 0.00 in 179 W/m2
12:12 56.1 °F 46.1 °F 30.06 in WSW 11.0 mph 19.0 mph 69 % 0.00 in 197 W/m2
12:17 56.1 °F 46.1 °F 30.06 in WSW 10.0 mph 19.0 mph 69 % 0.00 in 188 W/m2
12:22 56.1 °F 46.1 °F 30.06 in WSW 11.0 mph 19.0 mph 69 % 0.00 in 197 W/m2
12:27 56.3 °F 46.3 °F 30.06 in WSW 11.0 mph 19.0 mph 69 % 0.00 in 239 W/m2
12:32 56.3 °F 46.3 °F 30.06 in WSW 9.0 mph 16.0 mph 69 % 0.00 in 255 W/m2
12:37 56.5 °F 46.4 °F 30.06 in WSW 11.0 mph 22.0 mph 69 % 0.00 in 206 W/m2
12:42 56.7 °F 47.0 °F 30.05 in WSW 12.0 mph 22.0 mph 70 % 0.00 in 570 W/m2
12:47 57.2 °F 46.7 °F 30.05 in WSW 13.0 mph 21.0 mph 68 % 0.00 in 469 W/m2
12:52 57.4 °F 46.9 °F 30.05 in WSW 13.0 mph 20.0 mph 68 % 0.00 in 229 W/m2
12:57 57.2 °F 46.7 °F 30.05 in WSW 13.0 mph 23.0 mph 68 % 0.00 in 237 W/m2
13:02 57.6 °F 47.1 °F 30.05 in WSW 12.0 mph 23.0 mph 68 % 0.00 in 348 W/m2
13:07 57.7 °F 46.5 °F 30.05 in WSW 11.0 mph 21.0 mph 66 % 0.00 in 269 W/m2
13:12 57.9 °F 46.6 °F 30.06 in WSW 12.0 mph 21.0 mph 66 % 0.00 in 366 W/m2
13:17 58.3 °F 47.0 °F 30.05 in WSW 11.0 mph 21.0 mph 66 % 0.00 in 299 W/m2
13:22 58.6 °F 47.3 °F 30.06 in WSW 10.0 mph 18.0 mph 66 % 0.00 in 675 W/m2
13:27 59.0 °F 47.2 °F 30.05 in WSW 11.0 mph 18.0 mph 65 % 0.00 in 522 W/m2
13:32 59.4 °F 47.2 °F 30.05 in WSW 12.0 mph 18.0 mph 64 % 0.00 in 631 W/m2
13:42 59.7 °F 47.1 °F 30.05 in WSW 13.0 mph 25.0 mph 63 % 0.00 in 671 W/m2
13:47 59.7 °F 47.5 °F 30.05 in WSW 12.0 mph 22.0 mph 64 % 0.00 in 570 W/m2
13:52 60.1 °F 47.4 °F 30.05 in WSW 11.0 mph 24.0 mph 63 % 0.00 in 564 W/m2
13:57 60.1 °F 47.4 °F 30.05 in WSW 13.0 mph 24.0 mph 63 % 0.00 in 649 W/m2
14:02 60.4 °F 47.8 °F 30.05 in West 15.0 mph 23.0 mph 63 % 0.00 in 680 W/m2
14:07 60.3 °F 47.6 °F 30.05 in West 14.0 mph 22.0 mph 63 % 0.00 in 450 W/m2
14:12 59.9 °F 47.3 °F 30.05 in WSW 15.0 mph 26.0 mph 63 % 0.00 in 311 W/m2
14:17 59.7 °F 47.1 °F 30.05 in West 15.0 mph 26.0 mph 63 % 0.00 in 229 W/m2
14:22 59.5 °F 46.9 °F 30.05 in West 13.0 mph 20.0 mph 63 % 0.00 in 250 W/m2
14:32 59.4 °F 47.6 °F 30.05 in WSW 11.0 mph 18.0 mph 65 % 0.00 in 218 W/m2
14:37 59.2 °F 47.4 °F 30.04 in WSW 10.0 mph 16.0 mph 65 % 0.00 in 251 W/m2
14:42 59.2 °F 47.4 °F 30.05 in WSW 10.0 mph 16.0 mph 65 % 0.00 in 190 W/m2
14:47 59.4 °F 48.0 °F 30.05 in WSW 10.0 mph 16.0 mph 66 % 0.00 in 148 W/m2
14:49 59.4 °F 48.0 °F 30.04 in WSW 10.0 mph 16.0 mph 66 % 0.00 in 144 W/m2
14:54 59.4 °F 47.6 °F 30.05 in WSW 10.0 mph 16.0 mph 65 % 0.00 in 165 W/m2
14:59 59.2 °F 47.4 °F 30.04 in WSW 11.0 mph 16.0 mph 65 % 0.00 in 230 W/m2
15:04 59.2 °F 48.2 °F 30.04 in WSW 10.0 mph 16.0 mph 67 % 0.00 in 257 W/m2
15:09 59.2 °F 47.8 °F 30.04 in WSW 7.0 mph 13.0 mph 66 % 0.00 in 274 W/m2
15:14 59.5 °F 48.2 °F 30.04 in WSW 8.0 mph 14.0 mph 66 % 0.00 in 285 W/m2
15:19 59.5 °F 48.2 °F 30.04 in WSW 10.0 mph 14.0 mph 66 % 0.00 in 338 W/m2
15:24 59.9 °F 48.9 °F 30.05 in WSW 9.0 mph 16.0 mph 67 % 0.00 in 248 W/m2
15:29 60.1 °F 47.9 °F 30.04 in WSW 10.0 mph 19.0 mph 64 % 0.00 in 188 W/m2
15:34 59.9 °F 48.1 °F 30.05 in WSW 10.0 mph 19.0 mph 65 % 0.00 in 155 W/m2
15:39 59.5 °F 47.8 °F 30.05 in WSW 10.0 mph 20.0 mph 65 % 0.00 in 144 W/m2
15:44 59.4 °F 48.0 °F 30.05 in WSW 10.0 mph 20.0 mph 66 % 0.00 in 130 W/m2
15:49 59.2 °F 48.2 °F 30.05 in WSW 10.0 mph 16.0 mph 67 % 0.00 in 114 W/m2
15:54 59.2 °F 48.2 °F 30.04 in WSW 8.0 mph 16.0 mph 67 % 0.00 in 93 W/m2
15:59 59.0 °F 48.4 °F 30.04 in WSW 5.0 mph 14.0 mph 68 % 0.00 in 107 W/m2
16:04 59.2 °F 48.6 °F 30.05 in West 4.0 mph 7.0 mph 68 % 0.00 in 113 W/m2
16:09 59.2 °F 48.6 °F 30.05 in West 3.0 mph 7.0 mph 68 % 0.00 in 130 W/m2
16:14 59.2 °F 49.0 °F 30.05 in West 2.0 mph 9.0 mph 69 % 0.00 in 135 W/m2
16:19 59.2 °F 48.6 °F 30.04 in WSW 5.0 mph 13.0 mph 68 % 0.00 in 153 W/m2
16:24 59.2 °F 48.2 °F 30.04 in WSW 8.0 mph 14.0 mph 67 % 0.00 in 158 W/m2
16:29 59.2 °F 48.2 °F 30.04 in WSW 8.0 mph 14.0 mph 67 % 0.00 in 148 W/m2
16:30 59.2 °F 48.2 °F 30.04 in West 8.0 mph 14.0 mph 67 % 0.00 in 130 W/m2
16:35 59.2 °F 48.2 °F 30.03 in West 8.0 mph 14.0 mph 67 % 0.00 in 125 W/m2
16:40 59.2 °F 48.2 °F 30.03 in WSW 7.0 mph 14.0 mph 67 % 0.00 in 125 W/m2
16:45 59.0 °F 48.1 °F 30.03 in WSW 5.0 mph 10.0 mph 67 % 0.00 in 116 W/m2
16:50 59.0 °F 48.1 °F 30.03 in WSW 5.0 mph 12.0 mph 67 % 0.00 in 95 W/m2
16:55 58.8 °F 47.9 °F 30.03 in WSW 6.0 mph 13.0 mph 67 % 0.00 in 81 W/m2
17:00 58.8 °F 48.3 °F 30.03 in WSW 5.0 mph 13.0 mph 68 % 0.00 in 74 W/m2
17:06 58.8 °F 48.7 °F 30.03 in West 1.0 mph 8.0 mph 69 % 0.00 in 67 W/m2
17:11 58.6 °F 48.9 °F 30.03 in SSE 1.0 mph 6.0 mph 70 % 0.00 in 63 W/m2
17:16 58.6 °F 48.5 °F 30.03 in West 2.0 mph 6.0 mph 69 % 0.00 in 62 W/m2
17:21 58.5 °F 48.3 °F 30.03 in West 2.0 mph 5.0 mph 69 % 0.00 in 53 W/m2
17:26 58.5 °F 48.3 °F 30.03 in SW 2.0 mph 12.0 mph 69 % 0.00 in 44 W/m2
17:31 58.3 °F 48.2 °F 30.03 in SW 4.0 mph 13.0 mph 69 % 0.00 in 37 W/m2
17:36 58.1 °F 48.0 °F 30.03 in SW 4.0 mph 12.0 mph 69 % 0.00 in 32 W/m2
17:41 57.9 °F 47.8 °F 30.03 in SW 3.0 mph 10.0 mph 69 % 0.00 in 28 W/m2
17:46 57.7 °F 47.6 °F 30.03 in SW 3.0 mph 10.0 mph 69 % 0.00 in 26 W/m2
17:51 57.7 °F 47.6 °F 30.03 in SSW 4.0 mph 14.0 mph 69 % 0.00 in 21 W/m2
17:56 57.6 °F 47.8 °F 30.03 in SSW 2.0 mph 14.0 mph 70 % 0.00 in 16 W/m2
18:01 57.4 °F 47.3 °F 30.03 in SE 3.0 mph 10.0 mph 69 % 0.00 in 11 W/m2
18:06 57.4 °F 47.7 °F 30.03 in SE 4.0 mph 10.0 mph 70 % 0.00 in 7 W/m2
18:11 57.4 °F 47.7 °F 30.03 in SSE 3.0 mph 10.0 mph 70 % 0.00 in 0 W/m2
18:16 57.4 °F 47.7 °F 30.04 in SSW 2.0 mph 9.0 mph 70 % 0.00 in 0 W/m2
18:21 57.2 °F 47.9 °F 30.03 in SW 3.0 mph 11.0 mph 71 % 0.00 in 0 W/m2
18:26 57.0 °F 47.7 °F 30.03 in SSW 4.0 mph 11.0 mph 71 % 0.00 in 0 W/m2
18:31 57.0 °F 48.1 °F 30.03 in South 2.0 mph 7.0 mph 72 % 0.00 in 0 W/m2
18:36 56.8 °F 47.9 °F 30.03 in South 2.0 mph 6.0 mph 72 % 0.00 in 0 W/m2
18:41 56.7 °F 47.7 °F 30.03 in SSW 2.0 mph 10.0 mph 72 % 0.00 in 0 W/m2
18:46 56.5 °F 47.9 °F 30.03 in SW 1.0 mph 10.0 mph 73 % 0.00 in 0 W/m2
18:51 56.1 °F 47.9 °F 30.03 in SE 1.0 mph 4.0 mph 74 % 0.00 in 0 W/m2
18:56 55.9 °F 48.1 °F 30.03 in SE 2.0 mph 6.0 mph 75 % 0.00 in 0 W/m2
19:01 55.8 °F 48.0 °F 30.03 in SE 2.0 mph 6.0 mph 75 % 0.00 in 0 W/m2
19:06 55.8 °F 48.3 °F 30.03 in SE 2.0 mph 8.0 mph 76 % 0.00 in 0 W/m2
19:11 55.6 °F 48.5 °F 30.03 in SE 2.0 mph 8.0 mph 77 % 0.00 in 0 W/m2
19:16 55.4 °F 48.3 °F 30.03 in ESE 3.0 mph 7.0 mph 77 % 0.00 in 0 W/m2
19:21 55.2 °F 48.1 °F 30.03 in ESE 3.0 mph 7.0 mph 77 % 0.00 in 0 W/m2
19:26 55.2 °F 48.5 °F 30.03 in ESE 3.0 mph 6.0 mph 78 % 0.00 in 0 W/m2
19:31 55.2 °F 48.5 °F 30.03 in ESE 4.0 mph 7.0 mph 78 % 0.00 in 0 W/m2
19:36 55.2 °F 48.5 °F 30.03 in ESE 5.0 mph 8.0 mph 78 % 0.00 in 0 W/m2
19:41 55.4 °F 48.7 °F 30.03 in ESE 5.0 mph 9.0 mph 78 % 0.00 in 0 W/m2
19:46 55.4 °F 48.7 °F 30.03 in SE 5.0 mph 9.0 mph 78 % 0.00 in 0 W/m2
19:51 55.4 °F 48.7 °F 30.02 in SE 4.0 mph 9.0 mph 78 % 0.00 in 0 W/m2
19:56 55.6 °F 48.5 °F 30.02 in South 4.0 mph 12.0 mph 77 % 0.00 in 0 W/m2
20:01 55.8 °F 48.3 °F 30.02 in SW 6.0 mph 12.0 mph 76 % 0.00 in 0 W/m2
20:06 55.9 °F 47.8 °F 30.02 in SW 7.0 mph 15.0 mph 74 % 0.00 in 0 W/m2
20:11 55.9 °F 47.8 °F 30.02 in SW 5.0 mph 15.0 mph 74 % 0.00 in 0 W/m2
20:16 55.9 °F 47.4 °F 30.02 in WSW 3.0 mph 9.0 mph 73 % 0.00 in 0 W/m2
20:21 55.9 °F 47.4 °F 30.02 in WSW 2.0 mph 8.0 mph 73 % 0.00 in 0 W/m2
20:26 55.8 °F 47.6 °F 30.02 in WSW 2.0 mph 11.0 mph 74 % 0.00 in 0 W/m2
20:31 55.6 °F 47.4 °F 30.02 in SW 2.0 mph 11.0 mph 74 % 0.00 in 0 W/m2
20:36 55.6 °F 47.4 °F 30.02 in ESE 2.0 mph 6.0 mph 74 % 0.00 in 0 W/m2
20:41 55.6 °F 47.4 °F 30.02 in East 3.0 mph 6.0 mph 74 % 0.00 in 0 W/m2
20:46 55.4 °F 47.6 °F 30.02 in ESE 3.0 mph 7.0 mph 75 % 0.00 in 0 W/m2
20:51 55.4 °F 47.6 °F 30.02 in SE 4.0 mph 10.0 mph 75 % 0.00 in 0 W/m2
20:56 55.4 °F 48.0 °F 30.02 in SSE 5.0 mph 10.0 mph 76 % 0.00 in 0 W/m2
21:01 55.4 °F 48.0 °F 30.02 in SSE 5.0 mph 8.0 mph 76 % 0.00 in 0 W/m2
21:07 55.2 °F 47.8 °F 30.02 in SSE 5.0 mph 9.0 mph 76 % 0.00 in 0 W/m2
21:11 55.4 °F 48.0 °F 30.02 in South 6.0 mph 11.0 mph 76 % 0.00 in 0 W/m2
21:17 55.6 °F 48.1 °F 30.01 in SSW 7.0 mph 15.0 mph 76 % 0.00 in 0 W/m2
21:22 55.6 °F 48.1 °F 30.02 in SSW 8.0 mph 15.0 mph 76 % 0.00 in 0 W/m2
21:27 55.6 °F 48.1 °F 30.02 in SSW 8.0 mph 14.0 mph 76 % 0.00 in 0 W/m2
21:32 55.8 °F 48.3 °F 30.01 in SW 9.0 mph 18.0 mph 76 % 0.00 in 0 W/m2
21:37 55.8 °F 48.3 °F 30.01 in SW 11.0 mph 18.0 mph 76 % 0.00 in 0 W/m2
21:42 55.9 °F 48.5 °F 30.01 in SW 14.0 mph 24.0 mph 76 % 0.00 in 0 W/m2
21:47 56.1 °F 48.7 °F 30.01 in SW 13.0 mph 24.0 mph 76 % 0.00 in 0 W/m2
21:52 56.1 °F 48.7 °F 30.02 in SW 12.0 mph 19.0 mph 76 % 0.00 in 0 W/m2
21:57 56.1 °F 48.7 °F 30.02 in SW 13.0 mph 20.0 mph 76 % 0.00 in 0 W/m2
22:02 56.1 °F 48.7 °F 30.02 in SW 12.0 mph 20.0 mph 76 % 0.00 in 0 W/m2
22:07 56.1 °F 48.7 °F 30.01 in SW 11.0 mph 18.0 mph 76 % 0.00 in 0 W/m2
22:12 56.1 °F 48.7 °F 30.01 in SSW 10.0 mph 18.0 mph 76 % 0.00 in 0 W/m2
22:17 56.1 °F 48.7 °F 30.01 in SSW 10.0 mph 19.0 mph 76 % 0.00 in 0 W/m2
22:22 56.1 °F 49.0 °F 30.02 in SSW 10.0 mph 19.0 mph 77 % 0.00 in 0 W/m2
22:27 56.1 °F 49.0 °F 30.02 in SSW 9.0 mph 14.0 mph 77 % 0.00 in 0 W/m2
22:32 56.1 °F 49.0 °F 30.02 in SSW 8.0 mph 13.0 mph 77 % 0.00 in 0 W/m2
22:37 56.1 °F 49.0 °F 30.02 in South 6.0 mph 11.0 mph 77 % 0.00 in 0 W/m2
22:42 56.1 °F 49.0 °F 30.02 in South 6.0 mph 11.0 mph 77 % 0.00 in 0 W/m2
22:47 55.9 °F 49.2 °F 30.02 in SSE 5.0 mph 10.0 mph 78 % 0.00 in 0 W/m2
22:48 55.9 °F 49.2 °F 30.02 in SSE 5.0 mph 10.0 mph 78 % 0.00 in 0 W/m2
22:53 56.1 °F 49.4 °F 30.01 in South 6.0 mph 10.0 mph 78 % 0.00 in 0 W/m2
22:58 56.1 °F 49.7 °F 30.01 in South 6.0 mph 10.0 mph 79 % 0.00 in 0 W/m2
23:03 56.1 °F 49.7 °F 30.01 in South 5.0 mph 10.0 mph 79 % 0.00 in 0 W/m2
23:08 56.1 °F 50.0 °F 30.01 in SSW 5.0 mph 10.0 mph 80 % 0.00 in 0 W/m2
23:13 56.1 °F 50.0 °F 30.01 in South 3.0 mph 9.0 mph 80 % 0.00 in 0 W/m2
23:18 56.3 °F 50.5 °F 30.01 in South 3.0 mph 9.0 mph 81 % 0.00 in 0 W/m2
23:23 56.5 °F 50.7 °F 30.00 in SSW 2.0 mph 7.0 mph 81 % 0.00 in 0 W/m2
23:28 56.5 °F 51.1 °F 30.00 in SW 4.0 mph 11.0 mph 82 % 0.00 in 0 W/m2
23:33 56.8 °F 51.7 °F 30.00 in SW 7.0 mph 14.0 mph 83 % 0.00 in 0 W/m2
23:38 56.8 °F 51.4 °F 29.99 in SW 6.0 mph 14.0 mph 82 % 0.00 in 0 W/m2
23:43 56.8 °F 51.7 °F 30.00 in SW 4.0 mph 9.0 mph 83 % 0.00 in 0 W/m2
23:44 57.0 °F 51.9 °F 30.00 in SW 3.0 mph 9.0 mph 83 % 0.00 in 0 W/m2
23:49 57.0 °F 51.9 °F 30.00 in WSW 4.0 mph 10.0 mph 83 % 0.00 in 0 W/m2
23:54 57.0 °F 51.9 °F 29.99 in SW 6.0 mph 10.0 mph 83 % 0.00 in 0 W/m2
23:59 57.0 °F 51.9 °F 29.99 in SW 6.0 mph 10.0 mph 83 % 0.00 in 0 W/m2
Delerius-Weather
Compliments of Weather Underground - 2.25 mb

Data updates at regular intervals.